Wetbulb
51.24 53.39 55.53 58.10 62.12 63.85 65.85 66.83 67.27 67.66 67.48 66.78 65.99 66.03 65.81 66.57 67.40 68.65 68.71 67.91 67.63 67.56 67.32 67.23 67.00 67.33 66.72 66.61 66.71 66.53 65.68 65.04 64.77 63.80 63.91 64.46 65.02 64.55 64.61 65.01 63.99 64.37 64.79
50.28 51.61 54.72 60.84 60.06 64.15 65.12 66.84 67.10 66.67 67.07 67.68 67.04 66.68 66.26 66.76 66.88 67.44 67.42 67.74 67.87 68.07 67.81 67.68 67.20 67.15 66.76 66.64 66.19 65.55 63.94 65.17 65.30 62.88 62.66 60.65 61.98 63.01 62.41 62.87 62.92 62.27 62.78
49.32 50.96 53.32 61.16 61.26 62.34 64.28 65.66 66.32 66.61 66.97 67.47 67.27 66.79 67.00 66.44 65.61 66.27 66.09 66.11 66.56 66.72 67.15 67.09 67.03 66.83 66.41 65.48 66.11 66.30 65.78 64.06 64.31 63.11 62.71 59.86 58.82 61.92 63.08 60.53 59.17 59.82 61.44
50.37 51.22 53.34 60.40 61.33 62.40 64.80 65.42 66.24 66.32 66.77 68.19 66.46 65.57 64.79 64.12 64.91 66.08 66.58 65.52 64.97 65.03 65.51 64.90 65.22 65.89 66.25 65.58 65.56 65.80 65.47 62.04 60.56 63.00 63.55 64.37 63.12 59.48 57.66 60.90 59.98 58.49 57.03
49.14 50.94 53.80 60.77 62.05 62.45 61.31 64.25 64.64 65.12 65.53 67.27 65.93 64.97 65.66 66.57 66.90 66.64 65.73 65.35 64.80 65.24 64.84 65.12 65.81 65.13 65.31 64.11 62.76 61.93 61.82 63.08 63.04 63.13 62.72 62.05 62.26 61.74 58.80 55.73 56.87 56.78 56.07
49.88 51.90 57.32 61.08 60.96 61.06 61.12 62.57 63.42 63.16 64.19 64.09 64.33 63.94 63.16 63.01 63.48 64.73 64.72 64.60 64.40 64.31 64.38 64.55 64.77 64.52 64.13 63.54 63.82 64.37 63.60 63.35 63.78 63.85 63.33 62.05 60.07 59.21 59.06 56.68 57.07 57.18 56.86
50.13 50.44 53.25 58.53 61.21 60.70 60.81 62.11 61.94 61.52 61.87 62.59 63.28 62.47 62.04 61.91 62.49 63.90 63.82 64.25 64.16 64.38 64.14 64.36 63.90 64.10 63.82 64.90 64.21 64.42 64.24 63.48 63.24 63.12 63.05 63.37 62.45 62.24 60.56 59.01 58.25 57.21 57.01
49.06 49.29 54.26 57.15 59.90 61.42 61.90 61.56 61.36 61.04 61.56 61.81 62.12 62.50 61.91 61.66 62.04 62.18 62.79 62.32 62.90 63.72 64.38 63.81 63.98 64.34 64.17 64.40 64.33 63.75 63.19 63.92 63.64 63.02 63.10 62.37 61.69 61.23 60.43 58.03 57.69 55.71 56.68
46.90 48.60 52.69 56.08 59.93 60.65 61.11 61.56 60.93 61.22 61.46 61.70 61.54 61.16 62.54 58.95 61.52 61.75 62.81 62.52 62.86 62.78 63.36 63.58 63.31 63.54 64.13 64.17 64.04 62.83 62.17 62.62 61.57 60.70 60.41 59.46 59.56 58.62 59.24 59.07 58.55 56.48 52.46
47.13 49.59 51.87 53.99 56.67 60.28 60.27 61.02 62.07 61.27 61.98 61.63 61.31 61.00 60.13 59.16 60.75 61.04 61.74 61.43 60.97 61.66 62.35 61.81 62.22 61.61 61.32 61.42 61.62 60.90 60.11 60.13 59.13 58.34 57.38 56.03 55.79 56.36 57.20 56.94 55.80 55.16 54.22
45.95 48.35 49.12 52.94 55.72 58.64 59.94 59.93 60.29 60.55 60.23 61.46 61.87 61.46 61.05 60.80 61.05 60.77 60.16 59.95 60.25 60.59 60.12 59.51 58.71 57.57 57.74 58.28 58.01 56.89 56.26 55.81 55.40 56.00 55.29 54.50 54.75 55.24 55.42 55.67 55.37 53.70 54.37
46.00 48.22 49.14 50.77 54.14 56.76 58.36 57.51 58.18 58.22 59.51 59.46 59.39 59.56 58.82 58.81 58.77 57.61 57.66 58.16 57.96 58.04 56.99 56.47 55.36 54.94 54.91 55.55 55.35 53.50 53.98 53.80 53.43 53.64 53.74 52.79 51.94 53.06 53.78 54.24 53.34 52.53 53.53
45.68 48.20 48.42 50.19 51.11 53.43 54.87 55.31 56.18 56.73 57.96 58.00 56.80 56.23 56.60 56.61 55.50 54.87 55.17 55.30 55.16 54.52 54.10 54.01 52.24 51.13 51.18 51.47 51.75 51.41 51.17 51.43 51.50 51.36 51.35 50.54 50.88 50.91 51.16 50.53 49.84 50.38 49.94
45.28 46.02 46.91 47.25 49.49 51.15 51.33 53.43 52.98 54.68 55.65 56.22 55.42 54.46 54.25 54.53 54.53 53.56 52.76 53.03 53.05 51.95 51.48 50.99 49.75 48.70 48.43 48.55 48.17 48.76 48.94 48.82 48.37 48.17 48.19 48.04 48.17 48.55 49.10 49.48 49.58 48.33 48.57
44.40 45.31 46.25 47.27 48.53 49.25 49.22 50.89 51.47 52.23 53.46 53.97 53.64 52.76 52.21 51.89 51.67 51.32 51.10 50.10 50.07 49.03 48.20 47.44 47.08 47.18 47.27 46.55 47.02 47.17 47.24 46.84 46.03 45.73 45.41 45.79 44.50 43.27 45.72 47.18 47.15 46.01 45.50
43.42 43.97 45.83 48.04 48.11 48.28 49.06 49.01 49.49 50.41 52.01 51.60 50.37 49.53 48.26 48.37 48.31 47.57 47.89 48.08 47.14 46.59 46.38 46.02 46.17 46.23 45.24 44.13 44.75 45.96 45.29 44.57 44.50 43.99 44.03 44.40 42.45 43.78 43.20 44.59 44.35 45.13 44.60
42.94 42.72 45.47 46.33 47.76 48.51 49.21 48.75 48.76 49.28 49.03 48.02 47.52 47.23 47.23 46.37 46.33 45.98 45.81 45.03 44.95 45.27 44.99 44.97 45.45 45.51 45.88 45.11 43.62 43.36 44.33 43.44 42.73 42.30 42.85 43.14 43.23 42.96 43.67 42.74 41.22 41.28 40.50
43.18 44.67 44.98 46.64 47.66 48.71 48.61 48.46 48.56 48.40 47.53 46.71 46.12 46.00 46.08 45.26 44.98 44.89 44.41 43.87 44.00 43.34 43.17 42.86 43.73 44.41 44.70 44.48 43.17 42.00 42.92 42.66 41.93 42.01 42.30 42.68 42.85 42.81 42.13 42.39 41.73 41.33 40.01
43.77 44.96 46.18 46.98 47.65 48.31 48.32 48.23 47.73 47.31 46.90 46.17 45.86 45.69 45.46 44.34 44.32 43.44 43.34 43.56 42.80 41.27 41.60 42.08 42.29 43.02 42.93 43.60 43.48 42.66 42.61 41.60 41.23 41.25 41.88 41.96 41.84 40.61 40.17 40.08 38.18 39.73 39.12
44.06 44.25 45.52 47.22 48.08 47.27 47.68 47.25 47.01 47.34 46.86 46.05 45.88 45.75 45.40 44.64 44.18 43.82 42.86 42.84 43.31 40.87 42.17 41.72 42.32 42.34 42.64 42.07 43.20 42.90 42.70 41.67 41.15 40.69 40.61 37.95 39.76 39.66 40.38 40.40 38.75 37.76 37.83
43.21 44.53 45.19 44.89 45.93 47.15 47.44 46.42 46.16 45.94 45.84 45.83 45.68 45.33 45.24 44.81 44.58 43.33 42.45 41.92 41.63 40.77 40.21 40.74 41.75 41.76 42.19 42.50 42.09 42.87 42.76 42.38 41.38 40.58 39.59 39.45 37.55 38.20 39.55 40.64 38.12 37.16 36.71
42.19 43.16 43.77 43.47 44.80 46.42 46.91 45.86 44.87 44.97 45.15 45.11 44.54 44.42 44.61 43.40 43.10 42.77 41.17 42.41 42.38 42.08 41.01 41.12 40.38 41.27 41.71 40.19 40.68 41.96 42.19 41.84 40.78 40.03 39.90 37.90 36.28 37.47 38.10 39.19 39.16 38.25 36.35
41.22 42.09 42.81 42.60 41.76 41.93 43.80 43.75 43.39 44.80 44.76 44.64 44.38 44.17 43.78 43.38 43.22 42.93 41.57 41.79 42.07 42.19 40.92 39.07 39.87 40.85 40.59 41.78 40.95 41.31 41.79 41.80 40.79 39.40 39.60 37.23 36.20 36.64 37.24 37.86 38.46 38.60 37.34
40.68 41.54 41.68 40.84 38.62 38.30 37.81 38.24 39.80 42.59 43.55 42.31 42.64 43.01 43.03 42.88 42.65 42.36 42.42 42.50 41.39 41.30 40.85 39.42 39.40 40.76 40.36 40.79 40.96 40.35 41.16 41.06 40.79 40.40 39.06 37.55 36.71 35.74 35.85 35.46 37.13 36.86 36.23
40.54 40.73 40.31 39.81 38.71 39.37 38.90 37.84 37.78 39.74 39.85 39.98 39.64 39.37 39.34 40.10 39.64 39.85 40.95 41.32 42.58 41.93 40.61 40.32 40.59 39.70 39.21 39.66 40.17 39.52 38.29 39.20 38.45 38.01 35.60 34.24 33.41 32.26 33.33 34.36 34.92 35.43 34.80
39.15 39.35 39.34 39.25 38.17 37.76 37.38 37.75 38.60 39.33 39.46 39.46 38.73 38.76 38.91 38.86 37.85 37.75 38.02 39.90 40.02 40.05 40.33 40.08 39.19 37.98 39.83 39.09 39.40 39.47 39.53 39.72 39.19 35.83 34.76 33.65 32.30 31.11 32.09 33.14 33.18 33.79 33.46
MSLP
1008.47 1008.29 1008.24 1007.77 1008.43 1008.68 1008.93 1008.86 1008.86 1009.59 1010.64 1011.79 1012.64 1013.56 1014.16 1014.77 1015.48 1016.01 1016.65 1017.29 1017.70 1018.28 1018.62 1018.84 1019.34 1019.75 1020.01 1020.19 1020.55 1020.89 1021.03 1021.34 1021.33 1021.13 1020.74 1020.71 1021.01 1021.17 1021.43 1021.55 1021.70 1021.35 1021.39
1008.11 1008.10 1008.41 1007.50 1008.36 1007.58 1008.50 1008.56 1008.93 1008.93 1010.17 1011.42 1011.99 1013.15 1013.99 1014.70 1015.28 1016.10 1016.58 1017.01 1017.42 1018.01 1018.37 1018.69 1019.23 1019.62 1019.91 1020.33 1020.61 1020.84 1021.01 1020.95 1020.88 1020.67 1020.86 1020.52 1020.93 1021.24 1021.47 1021.71 1022.08 1022.33 1022.09
1007.56 1007.92 1008.00 1007.63 1007.44 1007.48 1007.93 1008.19 1008.74 1009.52 1010.29 1011.62 1012.01 1013.27 1013.92 1014.98 1015.47 1016.11 1016.46 1016.94 1017.42 1018.00 1018.37 1018.72 1019.21 1019.48 1020.00 1020.33 1020.49 1020.63 1020.60 1020.55 1021.02 1021.33 1021.06 1020.80 1020.52 1020.99 1021.48 1021.77 1022.06 1022.39 1022.63
1007.57 1008.26 1007.45 1007.34 1007.36 1007.83 1007.55 1007.70 1008.72 1009.71 1010.68 1011.33 1011.76 1012.53 1013.31 1014.19 1015.01 1015.40 1016.06 1016.70 1017.27 1017.88 1018.36 1018.92 1019.24 1019.37 1019.86 1020.29 1020.35 1020.48 1020.45 1020.86 1021.06 1021.41 1021.38 1021.24 1021.32 1021.09 1021.18 1021.73 1022.04 1022.46 1022.94
1006.80 1007.10 1006.86 1006.62 1006.81 1006.81 1007.08 1008.10 1009.14 1010.18 1010.35 1011.17 1012.12 1012.56 1013.58 1013.98 1014.49 1015.18 1015.78 1016.54 1017.22 1017.58 1018.15 1018.60 1018.81 1019.32 1019.74 1020.09 1020.17 1019.93 1020.00 1020.41 1020.86 1020.94 1021.26 1021.36 1021.52 1021.61 1021.91 1021.85 1022.36 1022.70 1022.56
1006.36 1006.33 1006.39 1006.11 1006.59 1007.04 1007.82 1008.80 1009.46 1010.02 1010.98 1011.66 1012.34 1012.90 1013.73 1014.27 1014.51 1015.06 1015.69 1016.37 1017.20 1017.61 1018.18 1018.64 1019.07 1019.59 1019.94 1020.37 1020.35 1020.28 1020.45 1020.44 1020.71 1020.79 1020.92 1020.90 1021.25 1021.42 1021.68 1021.98 1022.07 1022.28 1022.24
1006.34 1006.02 1005.99 1006.06 1006.70 1007.43 1008.08 1008.79 1009.35 1009.97 1011.20 1011.62 1012.45 1013.07 1013.76 1014.44 1014.41 1015.20 1015.32 1016.16 1016.99 1017.40 1017.79 1018.54 1018.86 1019.65 1019.86 1019.89 1020.09 1020.46 1020.30 1020.55 1020.74 1020.93 1020.80 1020.81 1020.80 1021.05 1021.43 1021.62 1021.78 1021.77 1021.88
1006.56 1006.31 1005.80 1005.80 1006.41 1007.21 1007.93 1008.61 1009.17 1010.11 1010.79 1011.01 1012.26 1012.67 1012.81 1013.76 1014.93 1015.36 1015.73 1016.19 1016.71 1017.41 1017.51 1018.04 1018.64 1019.23 1019.47 1019.89 1020.04 1020.30 1020.23 1020.56 1020.78 1020.95 1020.93 1020.96 1021.11 1021.45 1021.61 1021.68 1021.71 1021.52 1021.07
1008.34 1007.83 1005.09 1005.64 1006.64 1007.23 1007.26 1008.19 1008.74 1009.23 1010.18 1011.19 1011.97 1012.41 1012.83 1013.90 1014.31 1014.80 1015.61 1016.35 1016.71 1017.02 1017.53 1017.58 1018.69 1019.09 1019.05 1019.51 1019.73 1019.91 1020.39 1020.54 1020.89 1021.08 1021.29 1021.45 1021.62 1021.83 1021.93 1021.77 1021.89 1021.59 1021.33
1008.53 1005.91 1005.57 1005.97 1006.73 1006.94 1007.89 1008.13 1008.73 1009.53 1010.04 1011.14 1011.71 1012.34 1012.23 1012.86 1013.55 1014.78 1015.62 1016.02 1016.47 1016.47 1016.96 1017.95 1018.70 1019.03 1019.15 1019.47 1019.86 1020.14 1020.51 1020.78 1021.01 1021.26 1021.47 1021.80 1021.88 1022.01 1021.96 1021.79 1021.90 1021.83 1022.01
1007.53 1007.09 1006.19 1006.78 1007.44 1007.91 1008.39 1008.40 1009.38 1010.11 1010.40 1010.89 1011.68 1012.02 1012.40 1013.28 1013.81 1014.66 1015.45 1015.74 1016.04 1016.78 1017.11 1018.11 1018.85 1019.08 1019.47 1019.80 1020.10 1020.49 1020.82 1021.03 1021.33 1021.47 1021.47 1021.75 1021.75 1021.69 1021.68 1021.75 1021.59 1021.82 1021.89
1008.51 1008.41 1007.78 1007.60 1007.79 1008.29 1008.58 1009.22 1009.92 1010.22 1010.67 1011.27 1011.94 1012.49 1012.93 1013.73 1014.52 1014.93 1015.42 1015.88 1016.53 1017.01 1017.53 1018.19 1018.66 1019.36 1019.86 1020.01 1020.41 1020.79 1020.98 1021.14 1021.41 1021.68 1021.84 1021.90 1022.25 1021.94 1021.90 1021.67 1021.84 1021.79 1021.71
1009.26 1008.49 1008.62 1008.62 1008.83 1009.19 1009.58 1010.43 1010.49 1010.99 1011.44 1011.81 1012.07 1012.82 1013.35 1014.07 1014.72 1015.33 1015.83 1016.21 1016.86 1017.46 1018.17 1018.53 1018.92 1019.53 1020.22 1020.53 1020.91 1021.05 1021.26 1021.45 1021.62 1021.94 1021.82 1021.85 1022.24 1022.21 1022.19 1022.28 1022.56 1022.19 1021.89
1010.56 1009.82 1009.45 1009.97 1010.32 1010.53 1010.95 1011.21 1011.52 1011.81 1012.18 1012.31 1012.76 1013.21 1013.66 1014.31 1015.00 1015.76 1016.29 1016.56 1017.05 1017.65 1018.24 1018.86 1019.48 1020.16 1020.69 1020.89 1021.11 1021.34 1021.48 1021.69 1021.81 1021.97 1022.12 1022.03 1022.41 1022.50 1022.60 1022.47 1022.36 1022.77 1022.52
1011.42 1011.27 1011.18 1010.95 1011.41 1011.75 1011.91 1011.81 1012.19 1012.62 1012.79 1012.99 1013.31 1013.81 1014.36 1014.88 1015.64 1016.40 1016.89 1017.23 1017.77 1018.41 1018.93 1019.56 1020.08 1020.36 1020.80 1021.03 1021.24 1021.50 1021.81 1022.18 1022.35 1022.50 1022.52 1022.38 1022.88 1023.26 1023.01 1022.83 1022.51 1022.92 1022.46
1012.75 1012.84 1012.40 1011.77 1011.98 1012.32 1012.17 1012.43 1012.83 1013.16 1013.26 1013.56 1013.97 1014.44 1015.00 1015.52 1016.33 1017.02 1017.36 1017.85 1018.33 1018.89 1019.50 1019.90 1020.14 1020.32 1020.63 1021.12 1021.38 1021.55 1021.91 1022.50 1022.78 1022.76 1022.61 1022.69 1023.18 1023.19 1023.59 1023.23 1022.58 1022.89 1022.39
1013.52 1013.48 1013.10 1012.87 1012.69 1012.75 1012.45 1012.71 1013.27 1013.59 1013.60 1014.06 1014.79 1015.24 1015.66 1016.06 1016.58 1017.19 1017.79 1018.10 1018.68 1019.20 1019.55 1019.90 1020.24 1020.82 1021.34 1021.86 1022.21 1022.05 1022.15 1022.40 1022.58 1022.77 1022.69 1022.82 1022.90 1023.32 1023.03 1022.69 1022.82 1023.09 1022.77
1014.37 1013.95 1013.46 1013.19 1012.94 1013.13 1013.30 1013.26 1013.63 1014.19 1014.66 1014.94 1014.98 1015.68 1016.08 1016.65 1017.14 1017.66 1018.33 1018.75 1019.18 1019.66 1020.00 1020.48 1020.75 1021.38 1021.86 1021.98 1022.16 1022.38 1022.46 1022.28 1022.42 1022.71 1022.21 1022.65 1022.90 1023.37 1022.85 1022.45 1022.51 1022.97 1023.07
1014.90 1014.60 1014.38 1013.93 1013.31 1013.42 1013.89 1014.07 1014.15 1014.42 1014.54 1014.97 1015.69 1016.31 1016.49 1017.11 1017.72 1017.90 1018.34 1019.27 1019.82 1020.11 1020.27 1020.70 1020.75 1020.94 1021.33 1021.59 1021.98 1022.23 1022.35 1022.14 1022.14 1021.70 1022.23 1022.62 1022.77 1023.23 1023.00 1022.70 1022.88 1022.85 1023.14
1015.91 1015.32 1014.73 1014.37 1014.10 1014.33 1014.29 1014.06 1014.37 1014.90 1015.46 1015.57 1015.87 1016.49 1016.93 1017.36 1017.99 1018.31 1018.83 1019.30 1019.78 1020.22 1020.29 1020.65 1020.94 1021.31 1021.55 1021.97 1021.96 1021.80 1021.66 1020.94 1021.17 1022.16 1022.33 1022.87 1023.31 1022.86 1022.36 1023.28 1022.96 1022.84 1022.96
1016.07 1015.85 1015.48 1015.20 1015.14 1015.09 1014.97 1014.88 1015.19 1015.32 1015.63 1016.03 1016.50 1016.85 1017.04 1017.26 1017.85 1018.57 1019.03 1019.40 1019.83 1020.26 1020.73 1021.06 1021.17 1021.52 1021.37 1021.71 1021.63 1021.19 1020.90 1020.90 1021.22 1021.87 1022.32 1022.32 1022.47 1022.65 1023.25 1023.01 1023.22 1023.02 1022.93
1016.71 1016.49 1016.12 1016.12 1015.97 1015.83 1015.73 1015.81 1016.00 1016.33 1016.15 1016.03 1016.03 1016.61 1016.82 1017.33 1018.04 1018.46 1019.08 1019.25 1019.64 1019.74 1019.74 1019.67 1020.26 1020.57 1020.66 1021.03 1021.12 1021.15 1021.17 1021.80 1022.09 1021.97 1021.77 1022.00 1022.42 1022.68 1023.22 1023.37 1022.93 1022.63 1022.70
1017.46 1017.17 1016.79 1016.75 1017.02 1016.96 1016.77 1016.53 1016.92 1016.85 1016.96 1017.03 1017.15 1017.56 1017.70 1017.79 1018.06 1018.30 1018.41 1018.70 1019.23 1019.29 1019.59 1019.80 1019.88 1020.30 1020.63 1020.73 1021.18 1021.25 1021.28 1021.82 1021.56 1021.74 1021.21 1022.04 1022.08 1022.62 1023.00 1023.09 1022.64 1022.14 1022.41
1017.71 1018.02 1017.82 1017.70 1017.70 1017.70 1017.62 1017.76 1017.85 1017.52 1017.27 1017.29 1017.39 1017.65 1017.95 1018.33 1018.58 1018.72 1018.88 1018.78 1019.14 1019.09 1019.39 1019.71 1019.98 1020.15 1020.37 1020.44 1020.25 1020.76 1020.88 1021.32 1020.98 1020.92 1021.38 1021.58 1021.88 1022.62 1022.68 1022.67 1022.24 1022.10 1022.33
1018.35 1018.24 1018.05 1018.18 1018.54 1018.69 1018.78 1018.96 1018.97 1018.57 1017.98 1017.76 1017.62 1017.81 1017.83 1017.98 1018.37 1018.89 1018.82 1018.89 1018.77 1018.97 1019.05 1019.04 1019.20 1019.81 1019.99 1019.48 1019.51 1020.20 1020.67 1020.63 1020.61 1020.93 1021.32 1021.47 1022.10 1022.46 1022.35 1022.12 1021.84 1021.88 1022.21
1018.65 1018.64 1018.74 1018.90 1019.11 1019.23 1019.41 1019.56 1019.67 1019.52 1019.10 1018.67 1018.58 1018.59 1018.57 1018.59 1018.45 1018.25 1018.41 1018.39 1018.50 1018.71 1019.00 1019.06 1019.06 1019.20 1019.18 1019.46 1019.25 1019.79 1020.29 1020.25 1020.38 1020.76 1020.90 1021.37 1021.88 1022.02 1021.80 1021.54 1021.45 1021.60 1021.69
Wind_Speed
12 10 9 14 19 21 24 20 21 22 14 13 12 10 11 8 9 9 12 13 11 12 10 7 7 6 6 6 7 5 5 4 4 4 4 4 4 4 3 4 5 4 5
13 9 11 17 18 22 21 19 17 16 14 11 10 8 8 9 9 9 11 12 12 12 10 8 7 8 6 7 7 7 4 5 5 3 2 2 4 3 3 2 2 6 5
12 9 12 16 17 16 15 16 14 14 14 14 10 8 8 6 8 10 9 9 12 11 10 9 6 6 5 6 7 7 7 6 2 4 3 2 3 1 3 2 2 0 2
7 5 13 17 22 17 19 15 14 13 15 16 11 15 12 11 9 9 9 9 11 10 9 8 8 8 6 7 7 7 6 1 2 2 4 4 4 3 3 2 2 2 2
8 7 14 16 18 18 7 6 11 10 8 12 11 9 12 9 7 7 10 9 8 9 10 8 8 8 6 5 6 6 8 6 4 4 2 3 3 3 3 2 1 2 3
8 11 12 8 15 11 12 7 6 9 8 8 8 12 9 6 6 8 8 6 6 6 8 7 7 5 5 4 6 7 9 6 6 5 5 4 3 2 3 3 3 3 2
8 9 14 12 16 18 16 15 11 9 8 7 7 7 8 6 2 6 6 10 7 5 8 8 8 7 6 7 8 9 7 5 5 6 6 4 4 3 4 5 5 4 2
7 5 13 15 13 15 17 15 15 15 12 9 8 8 3 4 3 3 2 3 3 5 8 8 6 9 8 9 6 5 4 7 6 8 4 2 2 2 3 3 5 6 6
10 9 14 13 13 13 12 13 11 10 13 13 9 6 4 7 4 3 2 3 4 5 8 7 8 8 9 9 9 6 6 6 5 4 3 2 2 1 2 3 3 4 6
8 12 14 12 10 13 10 11 11 11 15 13 13 11 13 11 13 9 8 9 6 7 9 10 9 8 8 7 7 6 5 6 3 3 4 3 2 3 3 3 4 4 5
13 13 14 12 10 10 9 10 9 10 9 12 12 12 11 10 11 10 9 9 9 11 11 10 10 9 8 8 7 6 6 6 5 5 4 4 3 3 3 3 3 4 5
12 9 12 11 11 9 10 8 8 9 9 12 11 9 8 8 9 8 9 10 11 10 11 10 10 9 8 7 8 8 6 6 6 5 5 4 2 2 2 2 4 4 4
13 15 12 12 10 9 9 7 6 8 10 11 12 11 11 11 11 9 9 10 11 12 11 11 10 9 8 8 7 7 7 7 6 5 5 4 1 1 2 3 4 4 3
12 13 12 11 10 7 7 6 7 6 7 11 12 12 12 11 11 10 10 10 11 11 10 9 10 9 8 8 8 8 7 6 5 5 4 4 1 2 3 4 4 5 5
13 13 11 10 8 7 7 8 6 6 7 10 10 11 11 11 11 10 10 10 10 9 10 11 10 10 8 6 7 6 6 5 5 4 3 3 2 3 4 4 3 5 5
12 11 10 11 9 6 7 7 7 5 7 8 9 10 11 11 10 10 10 10 10 11 10 9 10 9 6 10 8 7 6 5 4 3 3 2 2 3 3 3 4 5 4
11 10 9 8 7 6 5 7 7 6 7 8 8 8 10 11 11 11 11 11 10 9 9 9 8 8 8 11 10 8 6 5 4 3 2 2 1 4 4 1 2 3 5
10 10 9 7 5 5 6 6 6 6 8 9 8 7 8 9 9 10 10 9 10 10 10 9 9 9 8 12 10 8 6 5 4 3 3 1 3 4 4 4 4 5 4
9 9 7 6 5 3 5 6 6 6 6 6 8 9 9 9 9 9 10 8 8 8 8 7 8 9 8 10 12 9 6 5 4 4 1 2 4 2 4 3 3 5 4
8 10 9 6 5 4 3 4 5 6 5 5 6 7 7 8 9 9 9 5 7 6 5 6 6 5 8 11 13 10 5 4 3 3 3 3 6 4 4 6 5 5 4
11 10 9 8 7 4 4 4 4 3 2 4 7 8 7 7 8 8 6 7 8 8 7 7 7 8 7 9 9 8 3 2 3 3 4 3 4 5 7 8 6 4 2
11 11 9 9 9 7 4 5 6 3 2 2 3 2 4 4 5 7 5 7 7 7 7 6 4 3 4 6 6 7 9 4 5 5 2 2 4 6 7 8 9 6 3
9 10 9 10 11 11 9 8 7 4 4 5 5 5 4 4 5 6 5 4 6 5 5 4 4 5 5 6 12 10 10 12 8 4 4 6 5 7 8 9 7 6 4
7 6 7 9 10 10 11 10 8 7 5 4 4 4 5 5 5 4 5 6 6 6 6 6 5 5 5 6 5 6 6 10 7 4 5 5 4 5 6 5 5 4 4
5 5 6 7 8 8 9 9 9 7 6 4 4 3 2 1 2 3 4 5 5 5 5 5 5 5 6 4 6 6 5 4 4 3 2 2 3 4 4 5 4 4 5
3 4 5 5 6 6 7 8 9 8 6 4 3 2 1 1 2 2 3 5 6 6 9 6 5 3 5 5 7 8 9 8 8 3 3 4 4 4 4 5 5 6 6
Wind_Direction
314 326 319 178 241 200 193 190 175 169 164 164 154 158 173 174 181 185 184 183 187 186 190 184 178 180 183 177 175 171 183 194 205 236 230 240 263 256 274 291 285 245 238
309 344 292 180 236 190 188 181 182 160 164 169 159 156 162 180 180 186 190 189 189 189 190 186 188 190 187 181 184 185 177 217 213 244 271 251 178 171 170 123 337 313 346
283 333 282 194 200 210 203 178 161 162 157 163 143 148 144 150 178 189 183 189 191 188 188 188 184 184 183 187 195 200 207 215 166 223 276 242 252 322 153 108 76 349 269
256 301 263 208 182 200 194 160 146 149 161 166 156 160 169 170 194 187 178 180 187 177 178 166 180 174 181 183 186 197 205 97 171 182 233 259 307 287 295 156 133 73 342
280 271 242 221 172 168 125 136 137 144 140 152 169 162 183 188 165 168 169 170 166 173 168 176 179 170 188 200 186 199 187 193 219 221 185 214 238 278 256 309 233 265 212
328 258 204 173 145 154 148 151 161 137 164 148 153 167 146 170 160 158 163 156 159 154 164 171 170 166 187 213 210 225 210 199 218 225 226 220 191 203 204 227 249 246 234
307 226 170 155 141 157 171 183 163 139 173 173 185 139 143 173 76 150 157 144 152 160 151 168 165 186 194 201 224 226 213 208 220 215 226 203 212 233 239 249 258 258 204
327 272 161 144 142 148 161 166 173 176 171 147 193 232 148 92 152 144 112 112 130 164 156 170 177 203 187 208 201 197 192 190 192 203 194 230 248 269 230 241 265 274 272
311 229 104 122 138 147 141 149 167 173 169 164 158 148 177 144 155 127 172 189 175 161 160 143 181 189 178 177 174 161 164 175 165 178 165 190 158 228 242 257 251 251 272
317 61 76 88 115 121 143 143 178 184 170 155 158 179 158 163 159 164 191 187 156 147 150 156 162 164 154 154 162 154 159 168 155 155 176 178 192 230 243 247 250 246 259
354 30 54 61 85 120 130 134 154 155 145 148 164 172 165 169 165 174 175 164 144 158 148 148 156 148 151 160 154 144 152 159 156 169 169 181 193 217 226 236 237 252 253
351 29 65 59 69 83 96 109 131 137 142 143 146 154 135 137 150 147 147 143 143 140 136 142 143 147 146 148 156 154 164 163 167 170 183 168 194 214 232 285 273 255 266
1 3 43 60 55 69 74 79 88 126 141 138 131 131 134 139 136 134 139 137 140 135 140 143 139 139 144 147 154 153 155 158 150 155 151 120 246 217 279 252 280 288 298
27 8 22 43 61 70 98 96 89 101 129 135 138 137 137 137 139 139 139 139 137 135 134 134 135 141 148 148 149 150 144 139 129 117 115 113 114 283 271 278 286 284 267
43 39 28 32 43 71 89 99 98 113 129 131 134 130 130 127 134 139 139 133 132 133 136 140 141 141 141 137 133 123 124 130 132 132 132 113 46 311 313 279 261 276 286
36 26 32 39 44 46 78 92 103 117 132 126 126 128 127 132 134 134 134 134 133 136 137 138 139 132 121 126 127 140 133 136 151 137 116 93 204 234 296 347 18 331 290
23 17 16 25 38 52 67 90 101 111 102 107 117 126 135 135 136 139 144 140 138 135 133 133 131 129 131 137 135 129 132 137 135 144 152 169 168 257 277 274 322 313 355
11 8 2 357 33 64 85 96 96 106 118 122 117 123 126 128 136 142 142 140 146 150 147 144 146 150 152 155 142 142 146 131 123 146 84 325 298 287 306 320 315 298 292
0 354 353 344 356 34 102 116 113 111 110 120 136 148 148 149 155 149 149 151 148 147 146 156 154 158 161 171 169 178 169 151 136 83 104 265 267 289 303 271 274 275 266
9 1 3 17 62 69 69 72 93 124 141 154 151 150 153 156 163 156 151 147 149 142 146 146 164 178 177 190 190 191 176 141 138 169 200 230 282 310 257 263 268 263 279
12 15 34 37 31 47 96 91 108 91 87 136 149 156 164 162 160 152 153 158 154 155 159 170 176 187 195 188 206 193 186 185 180 209 209 211 224 268 272 256 243 272 308
16 17 35 45 37 28 50 93 76 46 95 114 109 150 148 138 155 156 158 167 172 173 169 165 173 211 215 230 208 229 229 233 230 227 207 217 236 251 255 258 230 230 233
26 16 31 42 40 40 36 57 27 39 129 150 153 165 171 171 179 180 169 176 192 195 187 188 202 204 201 206 216 212 218 235 231 217 214 202 213 242 248 253 258 230 227
41 30 44 50 44 29 29 25 10 8 33 76 105 135 171 176 181 189 194 196 198 201 195 196 214 213 207 204 193 205 217 231 237 214 214 200 207 248 264 258 240 233 240
64 52 53 53 51 42 40 28 8 359 24 18 34 24 25 154 170 225 224 223 227 228 211 212 208 208 215 217 195 201 201 201 206 167 150 180 219 232 238 241 239 235 234
90 88 79 73 62 51 42 30 20 9 4 34 51 30 339 238 239 217 240 231 252 240 237 235 213 214 230 184 184 203 216 203 193 180 204 216 220 223 236 249 245 232 235